OV1-5 DEB, 5361

Orbit data source: Space-Track

OV1-5 DEB, 5361 is space debris in LEO originally from a launch on Wed, 30 Mar 1966 UTC launched from the Air Force Western Test Range (AFWTR). Debris objects in space refer to the collection of defunct objects orbiting the Earth. Examples of debris include non-operational satellites, rocket bodies, and fragments generated from explosions, collisions, or faulty payload assembly.

Loading next visibility...
Identifier
5361, 1966-025F
Orbit
LEO
Country
Flag of USUS
Related business
Flag of USAir Force Systems Command (OAR legacy assets) (US)
Manufacturer
Unknown
Mission
Spacecraft
Bus & Motor
Unknown
Mass
Unknown
Launch date (UTC)
1966-03-30 (59 years ago)
Launch vehicle
Unknown
Launch site
Air Force Western Test Range (AFWTR)
Object type
Payload
Rocket body
Debris
Shape & HBR
Unknown
Radar Cross Section
Small (<0.1 m²)

Expand to show TLE details & history
Last TLE update: 1 day ago

TLE from 1 day ago
0 OV1-5 DEB
1 05361U 66025F   25258.48698796  .00009103  00000-0  22148-2 0  9995
2 05361 144.6129 222.1570 0022756 177.9074 182.1718 14.49998480328849
Epoch: 2025-09-15T11:41Z
TLE epoch observation values (Epoch: 2025-09-15T11:41:15.759Z)
Latitude
-0.00006°
Longitude
52.15048°
Altitude
740.785 km
Speed
7.478 km/s
True Right ascension
14h 48m 37s
True Declination
0° 00' 00"
Sunlit
Object was in daylight at epoch
Visualization orbit readout
Latitude
Unknown
Longitude
Unknown
Altitude
Unknown
Speed
Unknown
Apparent Right ascension
Unknown
Apparent Declination
Unknown
Sunlit
N/A
Visualization observer readout
Local Sidereal Time
12:24:42
Azimuth
Unknown
Elevation
Unknown
Doppler factor
Unknown
Orbital elements
Apogee altitude
744.912 km
Perigee altitude
712.568 km
Semi-major axis
7,106.877 km
Eccentricity
0.00228
Inclination
144.6129°
RAAN
222.157°
Arg. of periapsis
177.9074°
True anomaly
182.16195°
Mean anomaly
182.1718°
Eccentric anomaly
182.16687°
Mean motion
3.62264 °/min
Orbital period
99.38 mins
BSTAR
0.0022148
Loading maneuver chart data...
Computing Atmospheric mass density...
Loading historical data...
Loading historical data...
Loading historical data...
Loading historical data...
Loading historical data...
Loading historical data...
Loading historical data...

Documentation

Showing up to 5 results
|